Find Starlink 1911

NORAD ID: 46749 Int'l Des: 2020-074 Owner: SPXS Country: US Constellation: starlink operational
LEOCIRCULAR

リアルタイム位置

3D地球を読み込み中...

Starlink 1911について

説明を読み込み中...

次回通過

Passes for default location (London). Set your location on the main map for personalized predictions.

高度履歴

Loading altitude history...

軌道要素

1 46749U 20074L 26123.25003471 .00452202 92775-4 11644-2 0 9996
2 46749 53.0399 4.0794 0005698 200.5516 216.5712 15.94645973 5947
Epoch: May 3, 2026 • Age: 2 hours

現在のステータス

高度 289.7 km
速度 7.74 km/s
衛星直下点 -16.08°S, 146.69°W
打ち上げ日 Oct 24, 2020
運用期間 5.5 years
タイプ internet

技術仕様

分類 Payload
質量 260.00 kg
乾燥質量 248.00 kg
総質量 260.00 kg
長さ 0.20 m
直径 2.80 m
スパン 9.00 m
形状 Box + pan
製造者 SPXS
バスタイプ Starlink
フェーズステータス In Orbit
所有者/国 SPXS/US

Most Searched